Lapse_Rate
6.0 6.1 6.0 5.8 5.7 5.7 5.9 5.9 6.6 6.7 6.7 6.9 7.0 7.1 6.4 6.3 5.9 6.4 6.4 5.9 5.8 5.9 5.7 5.5 5.5 5.4 5.3 5.0 5.0 4.9 5.0 5.3 5.3 5.5 5.6 5.9 5.8 5.8 5.8 5.7 5.6 5.7 5.6 5.5
6.2 6.0 5.9 5.9 5.8 5.8 5.7 5.8 6.1 6.6 6.9 6.8 7.0 7.3 7.4 6.8 6.4 6.2 6.3 6.4 6.1 5.8 5.8 5.7 5.5 5.6 5.6 5.4 5.1 5.2 4.9 5.0 5.2 5.2 5.0 5.4 5.5 5.6 5.6 5.6 5.8 5.8 5.8 5.7
6.2 6.0 6.0 5.8 5.8 5.8 5.7 5.9 5.9 5.7 6.4 6.6 6.9 6.9 7.5 7.5 7.0 6.8 6.8 6.4 6.4 6.2 5.8 5.9 5.9 5.8 5.8 5.7 5.5 5.3 5.3 5.2 5.2 5.1 5.2 5.3 5.5 5.5 5.7 6.0 6.2 6.2 6.1 6.1
6.2 5.9 5.9 5.9 5.9 5.8 6.0 5.8 5.9 6.1 6.3 6.4 6.5 7.1 7.2 7.5 7.4 7.4 6.9 7.1 6.9 6.6 6.5 6.3 6.0 6.0 6.0 6.1 5.7 5.3 5.3 5.3 5.1 5.2 5.3 5.5 5.7 5.8 5.9 6.0 6.1 6.2 6.3 6.3
6.1 6.0 6.1 6.2 6.2 6.0 5.9 5.9 6.1 6.2 6.1 6.1 6.5 6.5 7.3 7.4 7.8 8.1 7.9 7.7 7.6 7.4 6.8 6.8 6.9 6.6 6.3 5.9 6.1 5.9 5.6 5.4 5.3 5.2 5.5 5.6 5.7 5.6 5.3 5.5 5.8 6.1 6.2 6.4
6.2 6.2 6.3 6.1 6.0 5.9 5.9 6.2 6.1 6.3 6.4 6.5 6.6 6.5 6.9 7.6 8.3 8.3 7.8 7.6 7.4 7.4 7.5 7.0 6.6 6.4 6.2 5.9 5.9 5.9 5.8 5.8 5.6 5.5 5.4 5.7 5.6 5.6 5.7 5.7 5.9 6.2 6.3 6.4
6.1 6.2 6.3 6.3 6.2 6.0 5.9 6.2 6.9 7.0 6.8 6.9 6.5 6.5 6.5 7.6 8.1 8.0 8.0 8.1 7.7 7.9 7.7 7.6 7.1 6.8 6.8 6.4 6.1 6.1 5.9 6.0 5.9 5.8 5.8 5.8 5.8 5.7 5.8 5.8 5.9 6.2 6.3 6.5
6.2 6.2 6.1 6.2 6.1 6.0 5.9 6.0 6.3 6.4 6.9 7.0 5.7 6.1 6.8 7.2 7.5 7.6 7.7 8.2 8.0 7.9 7.8 8.0 8.1 7.5 6.9 6.7 6.6 6.6 6.4 6.1 6.2 6.1 6.0 5.9 5.8 6.0 6.0 6.0 6.1 6.2 6.5 6.5
6.2 6.2 6.0 6.2 5.9 6.1 5.9 5.7 5.8 5.8 5.8 5.8 6.3 6.0 6.6 7.0 6.9 7.3 7.6 8.1 8.3 8.2 8.0 8.0 8.0 7.8 7.3 6.8 6.7 6.7 6.9 6.5 6.2 6.4 6.2 6.0 5.9 6.0 6.3 6.2 6.0 6.2 6.4 6.5
5.7 5.9 6.1 6.2 5.8 5.8 5.8 5.8 6.0 6.0 6.4 6.4 6.4 5.6 6.7 6.5 6.5 7.2 7.7 7.9 8.4 8.3 8.2 8.3 8.2 8.0 7.9 7.0 6.8 6.4 6.6 6.8 6.6 6.5 6.3 6.3 6.2 6.1 6.1 6.1 6.2 6.3 6.3 6.1
5.4 5.5 5.8 6.1 5.7 5.8 5.5 5.5 5.7 6.0 5.7 6.5 6.3 6.4 6.2 6.1 6.2 6.5 7.3 7.7 7.8 8.2 8.1 8.4 8.5 8.2 8.1 7.3 6.7 6.5 6.2 6.6 6.5 6.3 6.4 6.4 6.4 6.4 6.2 6.1 6.1 6.2 6.2 6.1
5.3 5.1 5.4 5.6 5.5 6.0 5.6 5.4 5.5 5.9 5.9 5.5 5.1 5.3 6.2 6.1 6.1 6.2 6.6 7.2 7.7 8.1 8.2 8.2 8.5 8.5 8.3 8.0 7.3 6.7 6.3 6.2 6.5 6.4 6.3 6.5 6.4 6.4 6.5 6.4 6.3 6.1 6.2 6.0
5.2 4.9 5.3 5.9 5.5 5.5 5.5 5.8 5.7 5.4 5.4 5.5 5.7 5.9 5.9 6.2 6.2 6.1 6.2 7.0 7.4 7.7 8.3 8.2 8.2 8.3 8.3 8.3 7.7 7.1 6.7 6.3 6.2 6.0 6.1 6.1 6.1 6.4 6.5 6.6 6.5 6.3 6.2 6.0
5.3 5.2 5.4 6.2 6.4 5.9 5.7 5.8 5.6 5.3 5.6 6.2 5.4 5.3 5.3 5.8 5.3 5.7 5.6 6.1 6.7 7.4 8.0 8.2 8.0 8.1 7.8 7.8 7.8 7.4 6.8 6.5 6.4 6.1 6.1 6.2 6.0 6.2 6.5 6.6 6.6 6.5 6.3 6.1
5.1 5.0 5.4 5.4 5.6 5.9 5.8 5.5 5.7 5.7 6.0 5.4 5.8 5.4 6.0 5.6 5.2 5.4 5.5 5.8 6.4 7.0 7.7 8.0 8.0 8.1 8.1 7.3 7.6 7.6 7.2 6.7 6.4 6.1 6.1 6.2 6.2 6.1 5.9 6.2 6.6 6.6 6.4 6.2
5.2 4.9 5.3 5.3 5.8 5.5 5.5 5.4 6.1 6.2 6.6 6.2 5.9 5.5 6.5 5.6 5.3 5.1 5.1 5.6 6.2 6.6 7.3 7.7 7.7 7.9 7.8 7.6 7.5 7.1 7.1 7.0 6.9 6.5 6.2 6.4 6.2 6.0 6.1 6.0 6.1 6.4 6.3 6.2
5.4 5.3 5.1 5.6 5.9 5.3 5.0 6.4 7.0 6.7 6.5 6.5 6.2 6.1 5.7 5.8 5.2 4.8 5.1 5.4 5.8 6.3 6.6 7.3 7.4 7.5 7.4 7.4 7.1 6.9 7.0 6.6 6.3 6.6 6.6 6.0 6.4 6.3 6.1 6.0 5.8 6.0 6.3 6.2
5.8 5.7 5.6 5.7 5.9 6.5 6.4 6.6 6.8 6.7 6.8 6.8 6.3 6.3 6.1 5.5 5.2 5.1 5.0 5.4 5.7 6.0 6.6 6.9 7.0 7.3 7.5 7.4 6.9 6.8 7.1 6.2 6.6 6.9 6.7 6.5 6.1 6.5 6.3 5.9 5.8 5.6 5.6 6.0
6.1 6.0 6.1 6.2 6.3 6.2 6.4 6.9 6.9 6.8 6.3 6.4 6.5 6.4 6.2 5.6 5.4 5.3 5.2 5.4 5.8 5.9 6.0 6.5 7.1 7.4 7.3 7.3 7.2 7.2 7.1 6.8 6.1 6.6 6.6 5.8 6.0 6.3 6.5 6.3 6.3 5.9 5.7 5.6
6.4 6.4 6.3 6.3 6.6 7.0 6.9 6.9 6.9 7.0 6.1 6.6 6.9 6.7 6.4 5.9 5.6 6.0 5.8 5.6 5.9 6.2 6.1 6.4 6.9 7.4 7.8 7.7 7.5 7.4 7.1 7.0 6.8 6.5 6.6 5.2 5.9 6.0 6.0 6.3 5.9 5.6 5.4 5.3
6.4 6.4 6.4 6.7 6.6 6.5 6.7 6.7 6.7 6.4 6.8 6.8 6.8 7.0 6.8 6.4 6.3 6.3 6.2 6.2 6.0 6.1 5.9 6.1 6.8 7.1 7.4 7.5 7.4 7.4 7.3 6.8 7.0 6.5 6.0 6.0 6.3 5.7 6.1 6.0 6.5 5.3 5.6 5.2
6.5 6.5 6.6 6.4 6.5 7.0 6.6 6.6 6.1 6.2 6.6 6.2 6.4 6.8 7.1 7.0 6.8 6.8 6.7 6.9 7.2 6.7 6.1 6.4 6.2 6.5 7.2 7.5 7.4 7.5 7.2 7.2 7.0 7.6 6.0 5.7 5.9 6.3 5.1 6.1 5.5 5.1 5.3 5.6
6.5 6.5 6.5 6.3 6.7 6.4 5.9 5.5 5.8 5.7 5.9 6.8 6.8 6.9 7.2 7.3 7.1 6.5 6.8 7.0 7.2 6.5 5.9 6.3 6.3 6.3 6.7 7.3 7.3 7.2 6.4 6.1 6.2 6.2 5.4 5.7 5.7 5.5 5.0 5.8 4.9 4.2 5.1 5.4
6.7 6.8 6.7 6.4 7.1 6.3 6.2 6.3 6.0 6.3 6.6 6.8 7.1 7.2 7.3 7.1 6.7 6.6 6.6 6.3 6.2 5.9 6.6 5.7 6.0 6.3 5.5 6.2 6.6 6.7 6.3 6.2 6.2 5.9 6.0 6.3 6.3 5.7 5.9 5.1 5.0 4.4 5.2 5.3
6.8 6.7 6.7 6.9 6.8 6.6 6.6 6.1 6.4 6.6 6.6 7.1 7.1 7.0 6.8 6.8 6.4 6.0 6.2 5.6 6.0 4.9 4.9 4.8 6.1 6.0 5.6 6.3 6.1 6.1 5.7 5.9 6.2 5.9 5.4 5.5 5.8 5.7 5.6 5.4 5.0 4.6 5.0 5.1
7.0 6.9 6.8 6.6 6.6 6.6 6.4 6.1 6.1 6.4 6.7 6.8 6.7 6.4 6.5 6.2 6.0 5.6 5.7 5.2 5.6 4.6 3.9 5.5 6.1 5.6 5.9 5.7 5.7 5.9 5.8 6.2 6.3 6.3 5.7 5.6 5.5 5.3 5.3 5.0 4.9 5.0 5.0 5.1
Wind_Speed
3 2 4 4 3 2 2 1 6 5 3 3 10 16 11 13 15 15 17 17 17 18 18 16 17 17 15 14 14 15 14 13 10 9 8 7 7 7 6 8 9 8 8 7
3 4 3 0 1 1 3 1 2 4 2 4 10 14 12 15 20 20 20 20 20 18 17 17 17 17 17 17 17 15 15 14 12 9 9 6 8 7 7 9 10 10 10 9
5 5 0 3 3 2 2 4 2 4 7 4 7 5 3 6 14 17 19 19 20 21 21 19 19 19 19 18 18 17 16 16 14 13 8 6 6 4 6 6 6 10 11 11
5 2 0 3 4 3 4 2 7 9 7 4 4 5 4 6 13 18 20 20 21 22 20 20 20 20 20 20 19 18 17 16 15 14 11 13 10 9 7 7 7 6 11 11
4 8 8 7 4 3 2 11 8 8 7 4 6 5 1 2 8 16 19 23 23 23 23 23 23 23 23 20 18 18 17 16 15 15 14 12 11 9 8 8 9 9 8 11
4 1 6 4 2 2 8 3 1 2 4 10 11 8 8 6 7 6 14 17 21 23 24 24 22 21 19 20 19 18 17 16 16 16 17 15 13 11 9 9 9 8 8 8
2 5 2 3 1 1 10 3 3 4 7 12 4 6 9 4 2 5 12 12 17 22 23 23 24 22 22 23 22 19 18 18 18 18 17 17 16 14 13 11 9 9 9 8
0 4 4 6 4 4 5 3 2 4 4 4 1 6 2 1 7 11 13 13 15 13 18 24 27 24 23 24 23 23 21 18 19 19 18 16 16 12 11 11 10 9 9 9
1 1 3 1 4 2 2 2 3 4 0 5 5 6 9 2 10 18 19 18 18 18 15 21 25 25 24 23 24 24 22 21 20 21 16 16 15 15 13 12 11 9 9 9
2 4 2 4 1 3 3 2 4 3 3 5 4 5 7 9 17 20 23 24 22 20 17 19 21 23 23 25 23 24 24 22 21 22 17 16 16 16 14 12 13 12 10 10
2 2 2 3 1 5 1 3 1 1 3 4 5 4 2 9 14 19 22 21 21 23 21 21 17 22 23 22 22 23 23 22 20 19 18 17 16 17 16 15 14 13 12 11
2 1 3 3 4 4 3 4 3 2 4 3 4 8 11 11 17 17 22 22 24 22 21 21 17 18 20 22 22 24 21 20 20 19 19 19 18 17 17 16 16 15 14 13
4 1 2 3 4 3 3 3 3 1 2 10 7 5 5 22 24 26 24 23 21 23 21 19 16 16 18 20 19 20 20 21 20 18 20 19 20 19 19 18 16 15 14 14
3 3 8 7 3 0 7 7 5 6 6 12 17 25 19 18 18 21 22 23 21 20 18 16 15 14 14 17 17 16 16 19 19 19 20 19 20 20 20 17 17 16 15 14
1 6 7 10 10 11 13 13 13 15 18 15 18 25 22 19 16 17 18 18 19 19 18 15 14 12 10 13 14 15 15 16 15 16 18 19 18 17 16 16 16 16 16 15
0 5 2 6 10 13 16 13 14 17 19 22 23 30 23 15 11 14 15 16 17 16 14 14 15 13 8 13 13 13 16 16 15 15 16 15 14 14 17 16 16 15 16 16
3 3 3 4 2 5 10 19 20 17 15 15 17 20 14 12 11 11 16 15 17 17 14 11 12 11 11 7 11 16 12 12 13 14 14 11 14 15 14 15 15 16 16 15
4 3 2 4 4 8 4 4 9 14 18 16 17 19 18 15 12 13 16 17 16 16 14 11 9 10 8 7 6 9 12 11 12 13 12 13 14 15 12 11 14 15 14 15
1 2 2 4 6 14 16 11 4 5 12 10 14 18 18 16 15 15 5 9 13 17 15 10 9 8 7 6 5 7 11 11 10 9 11 12 15 12 11 10 11 12 13 13
3 0 4 3 7 8 4 3 3 3 11 10 16 16 17 18 12 9 7 12 15 15 15 12 10 8 6 4 7 10 10 9 7 6 10 13 8 8 10 8 7 6 8 7
3 2 6 7 7 8 7 5 3 9 4 20 15 17 15 12 11 18 17 18 15 11 18 13 7 7 6 6 3 9 10 9 8 10 9 7 8 5 10 7 9 8 9 10
3 3 3 1 4 7 2 8 6 13 21 15 17 19 20 15 15 18 16 17 14 15 15 11 4 2 3 1 5 8 8 6 2 10 9 12 8 6 2 4 7 9 7 7
4 5 5 5 6 12 11 15 16 13 17 17 15 17 17 18 16 16 13 11 12 16 15 4 6 7 9 9 4 6 4 5 4 6 14 10 8 5 3 2 3 6 8 8
5 5 4 3 8 13 18 16 12 11 13 17 16 18 18 17 15 10 6 7 10 15 15 10 11 12 13 10 7 9 2 6 5 5 6 6 6 12 8 1 4 5 5 5
3 4 5 9 14 11 10 10 9 12 15 16 16 17 17 13 5 4 4 7 12 12 14 13 12 10 11 7 7 8 6 7 6 6 2 4 5 4 6 3 1 4 2 2
5 5 4 7 8 8 13 12 14 13 11 13 14 7 11 5 6 7 8 9 14 8 11 11 12 13 13 12 13 13 12 9 9 10 8 6 7 6 4 4 3 9 6 7
Wind_Direction
35 154 124 79 47 67 99 353 329 331 9 265 266 271 263 199 204 200 199 203 208 206 208 209 204 206 204 199 196 196 196 199 196 194 198 209 220 217 218 212 209 207 215 215
132 127 138 97 69 75 52 23 321 291 323 284 293 275 275 208 206 205 204 207 208 212 212 208 206 203 205 203 201 198 201 197 199 199 195 206 205 214 213 205 201 206 210 213
157 112 209 162 98 349 36 295 323 281 319 214 287 274 248 234 223 218 220 218 215 213 212 211 203 203 205 206 203 203 200 200 202 201 192 188 185 201 195 199 203 204 207 212
85 27 57 72 77 15 300 341 308 288 319 285 358 298 239 218 224 219 223 221 223 218 215 213 207 203 206 209 205 204 200 198 202 196 191 199 198 201 207 204 206 204 207 211
49 55 59 72 356 295 335 316 279 278 270 295 254 244 241 188 240 231 228 225 226 223 220 216 209 205 204 207 205 205 197 198 198 195 201 198 207 204 201 207 206 208 206 217
65 338 40 353 305 337 319 280 251 209 241 250 247 242 237 230 241 270 242 238 235 232 225 223 214 211 210 204 204 204 197 196 196 198 202 206 204 204 204 203 207 211 213 211
29 41 341 11 42 26 2 342 254 221 213 248 145 253 261 237 291 318 328 288 252 236 228 223 215 208 206 202 202 200 198 200 198 203 205 209 211 207 203 206 210 207 209 209
31 173 23 3 26 322 342 335 338 269 266 309 170 243 172 158 2 26 5 352 338 290 241 228 218 208 203 202 198 194 194 199 198 203 206 208 212 213 211 210 214 214 215 214
315 217 325 13 348 282 80 195 357 281 231 270 249 267 270 356 16 3 359 359 355 340 311 247 230 216 205 201 200 197 193 197 197 200 203 207 209 216 214 212 212 216 221 223
121 291 44 328 187 88 329 8 221 189 256 246 233 269 247 8 358 351 350 345 342 334 319 309 239 221 210 205 199 200 198 194 196 200 201 204 207 210 213 212 213 216 219 218
121 247 148 264 27 307 211 171 137 292 275 272 285 243 146 30 356 338 334 333 333 332 329 319 266 223 213 207 202 202 203 198 199 197 200 202 206 210 211 214 213 212 216 215
60 246 266 290 326 291 234 94 65 257 189 252 289 261 299 339 338 337 330 330 330 329 328 327 290 223 208 208 204 202 201 201 197 196 198 201 203 206 210 214 215 214 214 215
171 187 266 232 150 178 207 135 84 73 255 249 262 248 334 334 334 332 328 327 328 327 330 332 304 221 208 205 204 203 199 202 200 195 197 203 205 205 211 213 214 214 216 219
174 206 238 253 314 34 250 249 246 261 256 263 250 279 291 300 316 315 317 322 326 323 325 329 320 237 205 204 203 199 208 210 202 198 201 202 205 207 209 209 210 213 214 217
250 253 231 250 263 267 265 261 262 250 250 257 279 282 288 298 302 303 308 314 322 324 324 326 319 296 220 199 204 203 205 206 208 207 205 206 203 203 210 209 211 212 214 219
120 262 218 263 249 255 261 258 245 250 255 258 266 272 286 292 292 303 309 314 315 314 319 327 322 298 243 199 198 202 208 200 196 203 210 208 205 205 204 206 207 208 213 216
211 221 210 260 334 271 260 240 249 261 261 257 267 283 308 286 308 305 304 309 310 309 316 315 307 298 295 234 201 203 195 201 203 195 206 204 202 202 205 208 210 212 213 215
173 199 227 280 282 251 36 317 269 273 273 276 283 287 289 288 298 301 280 297 305 308 305 314 304 305 303 274 245 217 194 190 197 199 202 206 204 209 201 201 209 215 220 218
304 175 247 270 263 297 286 277 280 267 288 334 331 334 326 302 298 292 343 346 333 320 295 286 280 306 293 278 249 226 199 196 193 195 196 208 210 199 195 205 211 212 218 217
111 275 262 252 277 277 18 198 302 260 269 2 339 332 322 326 302 307 331 323 318 349 311 286 274 285 303 313 228 219 199 187 166 172 190 217 204 189 191 201 204 192 205 204
256 256 263 266 269 274 283 326 300 252 337 335 330 316 321 303 301 307 309 306 301 317 339 299 267 251 291 345 88 123 129 129 126 118 112 96 80 110 123 141 143 134 130 136
268 279 272 237 276 285 51 304 274 327 316 316 307 297 301 295 287 294 302 305 312 318 296 288 239 87 345 21 103 101 97 108 99 96 95 92 78 68 348 129 156 152 154 166
245 217 281 230 256 294 296 283 291 303 303 306 304 291 295 293 292 295 312 330 337 6 327 197 185 107 46 9 52 85 97 127 138 120 129 135 149 105 28 355 148 205 182 182
230 200 237 270 266 302 306 309 307 306 295 298 292 291 291 284 295 286 328 357 25 22 350 317 95 60 60 11 11 56 52 164 160 155 162 165 171 147 158 210 240 240 168 208
283 179 245 262 281 290 260 310 324 311 303 299 302 299 286 281 115 106 32 39 58 30 341 281 66 65 65 40 29 40 36 91 83 92 108 66 79 128 111 83 194 220 95 80
196 215 218 284 297 269 285 307 320 309 314 317 304 359 48 54 141 84 49 45 73 34 331 0 35 50 34 37 30 27 35 67 81 76 58 49 62 66 68 128 91 50 62 77